| time (UTC) | temp C | wind direction | speed KPH | gust KPH | rain 1hr cm | rain 24hr cm | rain mn cm | humidity % | barometer mb |
| 20260906121552 | 20 | 360 | 3.2 | 6.4 | 0.00 | 0.00 | 0.00 | 94 | 1018.8 |
| 20260906120107 | 20 | 360 | 0.0 | 4.8 | 0.00 | 0.00 | 0.00 | 95 | 1018.4 |
| 20260906114624 | 19 | 360 | 1.6 | 4.8 | 0.00 | 0.00 | 0.00 | 95 | 1018.3 |
| 20260906113058 | 19 | 360 | 3.2 | 6.4 | 0.00 | 0.00 | 0.00 | 94 | 1018.0 |
| 20260906111625 | 19 | 0 | 1.6 | 8.0 | 0.00 | 0.00 | 0.00 | 94 | 1017.6 |
| 20260906110057 | 19 | 360 | 1.6 | 8.0 | 0.00 | 0.00 | 0.00 | 94 | 1017.7 |
| 20260906104559 | 19 | 360 | 3.2 | 9.7 | 0.00 | 0.00 | 0.00 | 94 | 1017.7 |
| 20260906103059 | 19 | 360 | 0.0 | 4.8 | 0.00 | 0.00 | 0.00 | 95 | 1017.3 |
| 20260906101557 | 19 | 360 | 1.6 | 9.7 | 0.00 | 0.00 | 0.00 | 95 | 1017.3 |
| 20260906100056 | 19 | 360 | 3.2 | 9.7 | 0.00 | 0.00 | 0.00 | 94 | 1017.3 |
| 20260906094553 | 19 | 360 | 3.2 | 8.0 | 0.00 | 0.00 | 0.00 | 94 | 1017.2 |
| 20260906093105 | 19 | 360 | 3.2 | 9.7 | 0.00 | 0.00 | 0.00 | 94 | 1017.2 |
| 20260906091558 | 20 | 360 | 1.6 | 8.0 | 0.00 | 0.00 | 0.00 | 94 | 1017.1 |
| 20260906090112 | 20 | 20 | 3.2 | 8.0 | 0.00 | 0.00 | 0.00 | 93 | 1017.1 |
| 20260906084611 | 20 | 360 | 3.2 | 9.7 | 0.00 | 0.00 | 0.00 | 93 | 1017.0 |
| 20260906083057 | 20 | 360 | 3.2 | 9.7 | 0.00 | 0.00 | 0.00 | 93 | 1017.0 |
| 20260906081601 | 20 | 360 | 1.6 | 6.4 | 0.00 | 0.00 | 0.00 | 93 | 1017.2 |
| 20260906080058 | 20 | 360 | 1.6 | 6.4 | 0.00 | 0.00 | 0.00 | 93 | 1017.2 |
| 20260906074603 | 20 | 0 | 1.6 | 4.8 | 0.00 | 0.00 | 0.00 | 92 | 1017.2 |
| 20260906073108 | 21 | 360 | 0.0 | 6.4 | 0.00 | 0.00 | 0.00 | 92 | 1017.1 |
| 20260906071600 | 21 | 360 | 1.6 | 4.8 | 0.00 | 0.00 | 0.00 | 91 | 1017.2 |
| 20260906070135 | 21 | 360 | 1.6 | 6.4 | 0.00 | 0.00 | 0.00 | 90 | 1017.4 |
| 20260906064559 | 21 | 0 | 1.6 | 6.4 | 0.00 | 0.00 | 0.00 | 90 | 1017.2 |
| 20260906063058 | 21 | 360 | 0.0 | 6.4 | 0.00 | 0.00 | 0.00 | 88 | 1017.2 |
| 20260906061634 | 22 | 360 | 3.2 | 12.9 | 0.00 | 0.00 | 0.00 | 88 | 1017.3 |
| 20260906060056 | 22 | 360 | 1.6 | 12.9 | 0.00 | 0.00 | 0.00 | 88 | 1017.2 |
| 20260906054601 | 22 | 360 | 1.6 | 12.9 | 0.00 | 0.00 | 0.00 | 87 | 1017.2 |
| 20260906053057 | 22 | 360 | 4.8 | 12.9 | 0.00 | 0.00 | 0.00 | 87 | 1017.2 |
| 20260906051600 | 22 | 360 | 1.6 | 19.3 | 0.00 | 0.00 | 0.00 | 87 | 1017.1 |
| 20260906050115 | 22 | 360 | 4.8 | 14.5 | 0.00 | 0.00 | 0.00 | 86 | 1016.9 |
| 20260906044556 | 22 | 360 | 1.6 | 14.5 | 0.00 | 0.00 | 0.00 | 86 | 1017.0 |
| 20260906043106 | 22 | 360 | 3.2 | 9.7 | 0.00 | 0.00 | 0.00 | 87 | 1016.7 |
| 20260906041558 | 22 | 360 | 3.2 | 17.7 | 0.00 | 0.00 | 0.00 | 88 | 1016.4 |
| 20260906040114 | 22 | 360 | 3.2 | 14.5 | 0.00 | 0.00 | 0.00 | 88 | 1016.4 |
| 20260906034555 | 22 | 360 | 6.4 | 14.5 | 0.00 | 0.00 | 0.00 | 87 | 1016.2 |
| 20260906033101 | 22 | 360 | 3.2 | 17.7 | 0.00 | 0.00 | 0.00 | 86 | 1016.2 |
| 20260906031606 | 22 | 360 | 3.2 | 16.1 | 0.00 | 0.00 | 0.00 | 86 | 1016.1 |
| 20260906030107 | 22 | 360 | 4.8 | 16.1 | 0.00 | 0.00 | 0.00 | 85 | 1016.1 |
| 20260906024602 | 23 | 360 | 6.4 | 19.3 | 0.00 | 0.00 | 0.00 | 85 | 1016.0 |
| 20260906023122 | 23 | 360 | 6.4 | 19.3 | 0.00 | 0.00 | 0.00 | 85 | 1016.1 |
| 20260906021557 | 22 | 360 | 6.4 | 20.9 | 0.00 | 0.00 | 0.00 | 85 | 1016.1 |
| 20260906020104 | 22 | 360 | 6.4 | 19.3 | 0.00 | 0.00 | 0.00 | 84 | 1015.8 |
| 20260906014623 | 23 | 360 | 6.4 | 19.3 | 0.00 | 0.00 | 0.00 | 83 | 1016.0 |
| 20260906013059 | 23 | 360 | 4.8 | 19.3 | 0.00 | 0.00 | 0.00 | 83 | 1016.2 |
| 20260906011559 | 23 | 360 | 6.4 | 22.5 | 0.00 | 0.00 | 0.00 | 83 | 1016.0 |
| 20260906010107 | 23 | 360 | 4.8 | 19.3 | 0.00 | 0.00 | 0.00 | 84 | 1015.9 |
| 20260906004611 | 23 | 360 | 6.4 | 19.3 | 0.00 | 0.00 | 0.00 | 84 | 1016.0 |
| 20260906003108 | 23 | 360 | 8.0 | 24.1 | 0.00 | 0.00 | 0.00 | 84 | 1015.6 |
| 20260906001558 | 23 | 360 | 8.0 | 24.1 | 0.00 | 0.00 | 0.00 | 83 | 1015.5 |
| 20260906000111 | 25 | 360 | 9.7 | 22.5 | 0.00 | 0.00 | 0.00 | 81 | 1015.4 |
| 20260905234603 | 25 | 360 | 9.7 | 25.7 | 0.00 | 0.00 | 0.00 | 80 | 1015.1 |
| 20260905233111 | 26 | 360 | 6.4 | 22.5 | 0.00 | 0.00 | 0.00 | 79 | 1015.0 |
| 20260905231558 | 26 | 360 | 14.5 | 29.0 | 0.00 | 0.00 | 0.00 | 77 | 1014.9 |
| 20260905230109 | 27 | 360 | 6.4 | 22.5 | 0.00 | 0.00 | 0.00 | 77 | 1014.8 |
| 20260905224606 | 27 | 360 | 6.4 | 22.5 | 0.00 | 0.00 | 0.00 | 75 | 1014.5 |
| 20260905223059 | 28 | 360 | 9.7 | 22.5 | 0.00 | 0.00 | 0.00 | 71 | 1014.3 |
| 20260905221558 | 28 | 360 | 6.4 | 17.7 | 0.00 | 0.00 | 0.00 | 70 | 1014.3 |
| 20260905220053 | 28 | 360 | 8.0 | 17.7 | 0.00 | 0.00 | 0.00 | 70 | 1014.4 |
| 20260905214600 | 29 | 360 | 3.2 | 14.5 | 0.00 | 0.00 | 0.00 | 69 | 1014.7 |
| 20260905213055 | 28 | 355 | 9.7 | 17.7 | 0.00 | 0.00 | 0.00 | 70 | 1014.3 |
| 20260905211558 | 28 | 0 | 3.2 | 16.1 | 0.00 | 0.00 | 0.00 | 73 | 1014.5 |
| 20260905210056 | 28 | 360 | 3.2 | 12.9 | 0.00 | 0.00 | 0.00 | 72 | 1014.6 |
| 20260905204554 | 27 | 360 | 4.8 | 16.1 | 0.00 | 0.00 | 0.00 | 75 | 1014.8 |
| 20260905203101 | 27 | 17 | 6.4 | 16.1 | 0.00 | 0.00 | 0.00 | 74 | 1014.7 |
| 20260905201600 | 27 | 13 | 4.8 | 11.3 | 0.00 | 0.00 | 0.00 | 78 | 1014.9 |
| 20260905200059 | 26 | 360 | 4.8 | 14.5 | 0.00 | 0.00 | 0.00 | 79 | 1014.9 |
| 20260905194552 | 26 | 360 | 6.4 | 17.7 | 0.00 | 0.00 | 0.00 | 79 | 1014.9 |
| 20260905193056 | 26 | 360 | 6.4 | 16.1 | 0.00 | 0.00 | 0.00 | 80 | 1014.9 |
| 20260905191557 | 26 | 360 | 6.4 | 17.7 | 0.00 | 0.00 | 0.00 | 79 | 1015.2 |
| 20260905184606 | 27 | 19 | 4.8 | 17.7 | 0.00 | 0.00 | 0.00 | 76 | 1015.0 |
| 20260905183124 | 28 | 360 | 6.4 | 17.7 | 0.00 | 0.00 | 0.00 | 75 | 1015.1 |
| 20260905181604 | 28 | 360 | 4.8 | 19.3 | 0.00 | 0.00 | 0.00 | 73 | 1015.2 |
| 20260905180106 | 28 | 49 | 4.8 | 19.3 | 0.00 | 0.00 | 0.00 | 75 | 1015.0 |
| 20260905174605 | 28 | 360 | 8.0 | 22.5 | 0.00 | 0.00 | 0.00 | 77 | 1014.9 |
| 20260905173100 | 28 | 360 | 9.7 | 17.7 | 0.00 | 0.00 | 0.00 | 76 | 1014.7 |
| 20260905171603 | 28 | 360 | 3.2 | 19.3 | 0.00 | 0.00 | 0.00 | 76 | 1015.0 |
| 20260905170055 | 28 | 360 | 8.0 | 16.1 | 0.00 | 0.00 | 0.00 | 75 | 1015.0 |
| 20260905164607 | 29 | 360 | 4.8 | 16.1 | 0.00 | 0.00 | 0.00 | 75 | 1014.8 |
| 20260905163106 | 28 | 360 | 6.4 | 14.5 | 0.00 | 0.00 | 0.00 | 75 | 1015.0 |
| 20260905161555 | 28 | 360 | 4.8 | 9.7 | 0.00 | 0.00 | 0.00 | 76 | 1015.1 |
| 20260905160123 | 27 | 360 | 6.4 | 14.5 | 0.00 | 0.00 | 0.00 | 78 | 1015.2 |
| 20260905154600 | 27 | 360 | 4.8 | 16.1 | 0.00 | 0.00 | 0.00 | 80 | 1015.0 |
| 20260905153105 | 27 | 360 | 6.4 | 14.5 | 0.00 | 0.00 | 0.00 | 78 | 1014.9 |
| 20260905151610 | 27 | 360 | 4.8 | 17.7 | 0.00 | 0.00 | 0.00 | 80 | 1014.9 |
| 20260905144558 | 26 | 360 | 6.4 | 16.1 | 0.00 | 0.00 | 0.00 | 83 | 1014.3 |
| 20260905143056 | 25 | 360 | 4.8 | 19.3 | 0.00 | 0.00 | 0.00 | 85 | 1014.6 |
| 20260905141557 | 24 | 360 | 4.8 | 17.7 | 0.00 | 0.00 | 0.00 | 89 | 1014.5 |
| 20260905140109 | 23 | 360 | 4.8 | 19.3 | 0.00 | 0.00 | 0.00 | 91 | 1014.3 |
| 20260905134557 | 23 | 360 | 4.8 | 14.5 | 0.00 | 0.00 | 0.00 | 92 | 1014.3 |
| 20260905133100 | 23 | 360 | 11.3 | 22.5 | 0.00 | 0.00 | 0.00 | 91 | 1014.4 |
| 20260905131611 | 24 | 360 | 4.8 | 12.9 | 0.00 | 0.00 | 0.00 | 91 | 1014.6 |
| 20260905130110 | 25 | 360 | 3.2 | 9.7 | 0.00 | 0.00 | 0.00 | 90 | 1014.0 |
| 20260905124556 | 24 | 360 | 3.2 | 9.7 | 0.00 | 0.00 | 0.00 | 91 | 1013.7 |
| 20260905123107 | 24 | 360 | 4.8 | 12.9 | 0.00 | 0.00 | 0.00 | 91 | 1013.7 |